Regional Weather Roundup
Issued by NWS

Home | Current Version | Previous Version | Text Only | Print | Product List | Glossary On
Versions: 1 2 3 4 5 6 7 8 9 10 11 12 13 14 15 16 17 18 19 20 21 22 23 24 25 26 27 28 29 30 31 32 33 34 35 36 37 38 39 40 41 42 43 44 45 46 47 48 49 50
000
ASUS43 KFSD 211410
RWRSD

WEATHER ROUNDUP FOR SOUTH DAKOTA
NATIONAL WEATHER SERVICE SIOUX FALLS SD
800 AM CST SAT JAN 21 2017

NOTE: "FAIR" INDICATES FEW OR NO CLOUDS BELOW 12,000 FEET WITH NO
SIGNIFICANT WEATHER AND/OR OBSTRUCTIONS TO VISIBILITY.


SDZ001>005-009-010-012>017-211500-
NORTHWEST AND NORTH CENTRAL SOUTH DAKOTA

CITY           SKY/WX    TMP DP  RH WIND       PRES   REMARKS
BUFFALO          N/A     27  25  92 W9        29.27R WCI  18
FAITH            N/A     30  29  96 W15       29.31S WCI  19
MOBRIDGE       LGT SNOW  27  24  89 NW7       29.31R FOG     WCI  19
$$

SDZ012>016-024>037-041>051-057-063-072>074-211500-
SOUTHWEST AND SOUTH CENTRAL SOUTH DAKOTA

CITY           SKY/WX    TMP DP  RH WIND       PRES   REMARKS
RAPID CTY ARPT CLEAR     28  26  92 NW6       29.34S WCI  22
PIERRE         CLOUDY    26  25  96 NW7       29.34S WCI  18
CUSTER         CLEAR     21  19  92 SE5       29.31R WCI  15
ELLSWORTH AFB  CLEAR     27  27 100 NW7       29.34R WCI  19
PHILIP         PTCLDY    31  30  96 W10       29.35R WCI  22
PINE RIDGE     CLOUDY    30  29  96 SW8       29.37R WCI  22
SPEARFISH      FAIR      28  27  93 W8        29.35S WCI  20
WINNER         PTSUNNY   29  26  89 CALM      29.35S
$$

SDZ004>011-016>023-039-040-211500-
NORTHEAST SOUTH DAKOTA

CITY           SKY/WX    TMP DP  RH WIND       PRES   REMARKS
ABERDEEN       CLOUDY    29  26  89 W3        29.35S
WATERTOWN      CLOUDY    34  34 100 SE7       29.32S FOG     WCI  28
BROOKINGS      FOG       34  34 100 S7        29.33S VSB 1/4 WCI  28
SISSETON         N/A     33  33 100 SE7       29.36S WCI  27
$$

SDZ017-020-022-023-036>040-048>070-211500-
SOUTHEAST SOUTH DAKOTA

CITY           SKY/WX    TMP DP  RH WIND       PRES   REMARKS
SIOUX FALLS    DRZL/FOG  36  36 100 SW5       29.35R VSB 1/4
HURON          CLOUDY    27  26  96 NW7       29.35F WCI  19
CHAMBERLAIN    CLOUDY    28  28 100 W6        29.36S WCI  22
MITCHELL       CLOUDY    29  26  89 W9        29.37S WCI  20
YANKTON        CLOUDY    36  34  93 W7        29.36S
$$

ABBREVIATIONS USED IN REMARKS
   TC - TEMPERATURE IN CELSIUS
  WCI - WIND CHILL INDEX
   HX - HEAT INDEX
  VSB - VISIBILITY




USA.gov is the U.S. government's official web portal to all federal, state and local government web resources and services.